Weather History for Toledo Metcalf, OH

Change the Weather History Date:

Sunday, March 30, 2014

  Actual Average (KTOL) Record (KTOL)
Temperature  
Mean Temperature 40 °F 43 °F  
Max Temperature 53 °F 53 °F 81 °F (1998)
Min Temperature 28 °F 33 °F 12 °F (1969)
Degree Days  
Heating Degree Days 25 22  
Month to date heating degree days 828  
Since 1 July heating degree days 5404  
Cooling Degree Days 0 0  
Month to date cooling degree days 0  
Year to date cooling degree days 0  
Moisture  
Dew Point 22 °F    
Average Humidity 54    
Maximum Humidity 75    
Minimum Humidity 28    
Precipitation  
Precipitation 0.00 in 0.09 in 0.80 in (1987)
Month to date precipitation 2.38  
Year to date precipitation 6.50  
Snow  
Snow 0.00 in 0.10 in - ()
Month to date snowfall 5.6  
Since 1 July snowfall 36.1  
Snow Depth -    
Sea Level Pressure  
Sea Level Pressure 30.17 in    
Wind  
Wind Speed 10 mph (NNW)    
Max Wind Speed 14 mph    
Max Gust Speed 22 mph    
Visibility 10 miles    
Events      
T = Trace of Precipitation, MM = Missing Value Source: NWS Daily Summary

Daily Weather History Graph

Daily Weather History Graph

Search for Another Location

Airport:

Trip Planner

Search our weather history database for the weather conditions in past years. The results will help you decide how hot, cold, wet, or windy it might be!

Date:

Astronomy

Mar. 30, 2014 Rise Set
Actual Time 7:20 AM EDT 7:57 PM EDT
Civil Twilight 6:52 AM EDT 8:25 PM EDT
Nautical Twilight 6:19 AM EDT 8:58 PM EDT
Astronomical Twilight 5:45 AM EDT 9:32 PM EDT
Moon 7:05 AM EDT (3/30) 8:08 PM EDT (3/30)
Length of Visible Light 13h 32m
Length of Day
12h 36m
Waning Crescent, 0% of the Moon is Illuminated
Mar 30
Waning Crescent
Mar 30
New
Apr 7
First Quarter
Apr 15
Full
Apr 22
Last Quarter

Hourly Weather History & Observations

Time (EDT) Temp. Windchill Dew Point Humidity Pressure Visibility Wind Dir Wind Speed Gust Speed Precip Events Conditions
12:53 AM 34.0 °F 25.0 °F 25.0 °F 70% 30.15 in 10.0 mi North 12.7 mph - N/A   Overcast
1:53 AM 33.1 °F 23.4 °F 25.0 °F 72% 30.15 in 10.0 mi NNW 13.8 mph 20.7 mph N/A   Mostly Cloudy
2:09 AM 33.1 °F 24.4 °F 25.0 °F 72% 30.13 in 10.0 mi North 11.5 mph - N/A   Scattered Clouds
2:53 AM 32.0 °F 23.0 °F 24.1 °F 73% 30.16 in 10.0 mi North 11.5 mph 21.9 mph N/A   Clear
3:53 AM 30.9 °F 20.7 °F 23.0 °F 72% 30.16 in 10.0 mi NNW 13.8 mph 21.9 mph N/A   Clear
4:53 AM 30.0 °F 21.1 °F 21.9 °F 72% 30.17 in 10.0 mi NW 10.4 mph - N/A   Clear
5:53 AM 28.9 °F 20.4 °F 21.0 °F 72% 30.17 in 10.0 mi NNW 9.2 mph - N/A   Clear
6:53 AM 28.0 °F 19.3 °F 19.9 °F 72% 30.19 in 10.0 mi NNW 9.2 mph - N/A   Clear
7:53 AM 28.0 °F 17.5 °F 21.0 °F 75% 30.21 in 10.0 mi NW 12.7 mph - N/A   Clear
8:53 AM 30.9 °F 21.7 °F 21.0 °F 67% 30.22 in 10.0 mi NNW 11.5 mph - N/A   Clear
9:53 AM 34.0 °F 26.0 °F 19.9 °F 56% 30.21 in 10.0 mi North 10.4 mph - N/A   Clear
10:53 AM 37.0 °F 29.8 °F 19.9 °F 50% 30.21 in 10.0 mi NNE 10.4 mph - N/A   Clear
11:53 AM 39.9 °F 35.1 °F 19.9 °F 45% 30.22 in 10.0 mi NNW 6.9 mph - N/A   Clear
12:53 PM 43.0 °F - 19.0 °F 38% 30.19 in 10.0 mi Calm Calm - N/A   Clear
1:53 PM 46.0 °F 44.8 °F 19.9 °F 35% 30.19 in 10.0 mi Variable 3.5 mph - N/A   Clear
2:53 PM 48.9 °F - 19.0 °F 31% 30.17 in 10.0 mi West 5.8 mph - N/A   Clear
3:53 PM 51.1 °F - 19.0 °F 28% 30.16 in 10.0 mi NW 11.5 mph - N/A   Clear
4:53 PM 52.0 °F - 21.0 °F 30% 30.14 in 10.0 mi WNW 11.5 mph - N/A   Clear
5:53 PM 52.0 °F - 19.9 °F 28% 30.12 in 10.0 mi NW 6.9 mph - N/A   Clear
6:53 PM 51.1 °F - 21.0 °F 31% 30.12 in 10.0 mi NNW 8.1 mph - N/A   Clear
7:53 PM 44.1 °F 40.1 °F 21.9 °F 42% 30.14 in 10.0 mi WNW 6.9 mph - N/A   Clear
8:53 PM 43.0 °F 41.3 °F 24.1 °F 47% 30.15 in 10.0 mi NW 3.5 mph - N/A   Clear
9:53 PM 41.0 °F - 23.0 °F 49% 30.16 in 10.0 mi Calm Calm - N/A   Clear
10:53 PM 37.9 °F - 23.0 °F 55% 30.17 in 10.0 mi Calm Calm - N/A   Clear
11:53 PM 36.0 °F 33.3 °F 23.0 °F 59% 30.16 in 10.0 mi SSE 3.5 mph - N/A   Clear